Home   Weather   Mazari Sharif   Past weeks

Flag for Afghanistan Past Weather in Mazari Sharif, Afghanistan — Yesterday and Last 2 Weeks

Now
70 °F

Duststorm.


Feels Like: 70 °F
Forecast: 58 / 69 °F
Wind: 16 mph from Southwest

Location: Termez Airport

Current Time: Apr 27, 2017 at 12:07:52 am

Latest Report: Apr 26, 2017 at 11:30 pm


Visibility: 3 mi

Pressure: 30.09 "Hg

Humidity: 43%

Dew Point: 46 °F

Location of Mazari SharifLocation

Past Weather in Mazari Sharif — Graph

°F

Mazari Sharif Temperature Yesterday

Maximum temperature yesterday: 88 °F (at 2:00 pm)
Minimum temperature yesterday: 57 °F (at 3:30 am)
Average temperature yesterday: 75 °F

High & Low Weather Summary for the Past Weeks

 TemperatureHumidityPressure
High95 °F (Apr 16, 3:00 pm)94% (Apr 14, 5:00 am)30.36 "Hg (Apr 14, 5:00 am)
Low52 °F (Apr 14, 4:30 am)6% (Apr 23, 4:00 pm)29.71 "Hg (Apr 20, 2:30 am)
Average72 °F46%29.97 "Hg
* Reported Apr 11 10:00 pm — Apr 26 10:00 pm, Mazari Sharif, Weather by CustomWeather, © 2017

Note: Actual official high and low records may vary slightly from our data, if they occured in-between our weather recording intervals... More about our weather records

Advertising

Mazari Sharif Weather History for the Previous 24 Hours

Scroll right to see more
 ConditionsComfort  
Time TempWeatherWind HumidityBarometerVisibility
10:00 pm
Wed, Apr 26
73 °FDuststorm.21 mph36%30.07 "Hg3 mi
9:00 pm73 °FDuststorm.18 mph38%30.07 "Hg4 mi
8:30 pm75 °FHaze.14 mph36%30.04 "Hg3 mi
8:00 pm75 °FClear.12 mph36%30.04 "Hg4 mi
7:30 pm75 °FClear.12 mph36%30.04 "Hg4 mi
7:00 pm77 °FClear.14 mph34%30.04 "Hg4 mi
6:30 pm79 °FDuststorm.14 mph32%30.01 "Hg4 mi
6:00 pm81 °FDuststorm.16 mph28%30.01 "Hg5 mi
5:30 pm82 °FDuststorm.21 mph28%30.01 "Hg4 mi
5:00 pm82 °FDuststorm.21 mph28%30.01 "Hg4 mi
4:30 pm84 °FDuststorm.18 mph27%30.01 "Hg4 mi
4:00 pm86 °FDuststorm.21 mph25%30.01 "Hg3 mi
3:30 pm86 °FDuststorm.18 mph25%30.01 "Hg3 mi
3:00 pm88 °FDuststorm.18 mph22%30.01 "Hg3 mi
2:00 pm88 °FDuststorm.18 mph22%30.01 "Hg3 mi
1:30 pm86 °FDuststorm.18 mph24%30.01 "Hg4 mi
1:00 pm86 °FClear.18 mph24%30.04 "Hg4 mi
12:30 pm86 °FClear.16 mph22%30.04 "Hg4 mi
12:00 pm84 °FClear.16 mph27%30.04 "Hg4 mi
11:30 am84 °FClear.14 mph27%30.04 "Hg4 mi
11:00 am82 °FHaze.16 mph28%30.04 "Hg3 mi
10:30 am81 °FHaze.16 mph30%30.04 "Hg3 mi
10:00 am79 °FClear.16 mph32%30.04 "Hg4 mi
9:30 am79 °FHaze.14 mph32%30.04 "Hg3 mi
9:00 am75 °FClear.18 mph36%30.04 "Hg4 mi
8:30 am73 °FClear.16 mph41%30.04 "Hg4 mi
8:00 am72 °FSunny.16 mph44%30.01 "Hg10 mi
7:30 am70 °FSunny.14 mph50%30.01 "Hg10 mi
7:00 am66 °FSunny.7 mph56%30.01 "Hg10 mi
6:30 am63 °FSunny.5 mph64%29.98 "Hg10 mi
5:30 am57 °FSunny.5 mph72%29.95 "Hg10 mi
4:30 am57 °FClear.2 mph72%29.92 "Hg10 mi
4:00 am57 °FClear.5 mph72%29.92 "Hg10 mi
3:30 am57 °FClear.5 mph72%29.92 "Hg10 mi
3:00 am59 °FClear.2 mph59%29.92 "Hg10 mi
2:30 am59 °FClear.2 mph59%29.92 "Hg10 mi
1:30 am63 °FClear.2 mph56%29.89 "Hg10 mi
12:30 am63 °FClear.5 mph59%29.89 "Hg10 mi
12:00 am81 °FClear.5 mph32%29.89 "Hg10 mi
Weather by CustomWeather, © 2017

See weather overviewHow to use our weather pages